Time,TemperatureF,DewpointF,PressureIn,WindDirection,WindDirectionDegrees,WindSpeedMPH,WindSpeedGustMPH,Humidity,HourlyPrecipIn,Conditions,Clouds,dailyrainin,SoftwareType,DateUTC
2013-06-08 00:02:00,44.0,40.0,-100.00,North,354,0.0,0.0,87,0.00,,,0.00,,2013-06-08 05:02:00,
2013-06-08 00:12:00,44.0,40.0,-100.00,North,354,0.0,0.0,87,0.00,,,0.00,,2013-06-08 05:12:00,
2013-06-08 00:22:00,44.0,40.0,-100.00,North,354,0.0,0.0,87,0.00,,,0.00,,2013-06-08 05:22:00,
2013-06-08 00:32:00,44.0,40.0,-100.00,North,354,0.0,0.0,87,0.00,,,0.00,,2013-06-08 05:32:00,
2013-06-08 00:53:00,45.0,42.0,-100.00,North,6,0.0,2.0,89,0.00,,,0.00,,2013-06-08 05:53:00,
2013-06-08 01:02:00,45.0,42.0,-100.00,North,6,0.0,2.0,89,0.00,,,0.00,,2013-06-08 06:02:00,
2013-06-08 01:12:00,45.0,42.0,-100.00,North,6,0.0,2.0,89,0.00,,,0.00,,2013-06-08 06:12:00,
2013-06-08 01:22:00,45.0,42.0,-100.00,North,6,0.0,2.0,89,0.00,,,0.00,,2013-06-08 06:22:00,
2013-06-08 01:32:00,45.0,42.0,-100.00,North,6,0.0,2.0,89,0.00,,,0.00,,2013-06-08 06:32:00,
2013-06-08 01:53:00,44.0,41.0,-100.00,NNW,342,0.0,2.0,88,0.00,,,0.00,,2013-06-08 06:53:00,
2013-06-08 02:02:00,44.0,41.0,-100.00,NNW,342,0.0,2.0,88,0.00,,,0.00,,2013-06-08 07:02:00,
2013-06-08 02:12:00,44.0,41.0,-100.00,NNW,342,0.0,2.0,88,0.00,,,0.00,,2013-06-08 07:12:00,
2013-06-08 02:22:00,44.0,41.0,-100.00,NNW,342,0.0,2.0,88,0.00,,,0.00,,2013-06-08 07:22:00,
2013-06-08 02:32:00,44.0,41.0,-100.00,NNW,342,0.0,2.0,88,0.00,,,0.00,,2013-06-08 07:32:00,
2013-06-08 03:02:00,41.0,39.0,-100.00,North,358,0.0,0.0,91,0.00,,,0.00,,2013-06-08 08:02:00,
2013-06-08 03:12:00,41.0,39.0,-100.00,North,358,0.0,0.0,91,0.00,,,0.00,,2013-06-08 08:12:00,
2013-06-08 03:22:00,41.0,39.0,-100.00,North,358,0.0,0.0,91,0.00,,,0.00,,2013-06-08 08:22:00,
2013-06-08 03:32:00,41.0,39.0,-100.00,North,358,0.0,0.0,91,0.00,,,0.00,,2013-06-08 08:32:00,
2013-06-08 03:53:00,38.0,37.0,-100.00,North,357,1.0,2.0,95,0.00,,,0.00,,2013-06-08 08:53:00,
2013-06-08 04:02:00,38.0,37.0,-100.00,North,357,1.0,2.0,95,0.00,,,0.00,,2013-06-08 09:02:00,
2013-06-08 04:12:00,38.0,37.0,-100.00,North,357,1.0,2.0,95,0.00,,,0.00,,2013-06-08 09:12:00,
2013-06-08 04:22:00,38.0,37.0,-100.00,North,357,1.0,2.0,95,0.00,,,0.00,,2013-06-08 09:22:00,
2013-06-08 04:33:00,38.0,37.0,-100.00,North,357,1.0,2.0,95,0.00,,,0.00,,2013-06-08 09:33:00,
2013-06-08 04:53:00,39.0,38.0,-100.00,NNE,23,0.0,0.0,96,0.00,,,0.00,,2013-06-08 09:53:00,
2013-06-08 05:03:00,39.0,38.0,-100.00,NNE,23,0.0,0.0,96,0.00,,,0.00,,2013-06-08 10:03:00,
2013-06-08 05:12:00,39.0,38.0,-100.00,NNE,23,0.0,0.0,96,0.00,,,0.00,,2013-06-08 10:12:00,
2013-06-08 05:22:00,39.0,38.0,-100.00,NNE,23,0.0,0.0,96,0.00,,,0.00,,2013-06-08 10:22:00,
2013-06-08 05:33:00,39.0,38.0,-100.00,NNE,23,0.0,0.0,96,0.00,,,0.00,,2013-06-08 10:33:00,
2013-06-08 05:53:00,41.0,40.0,-100.00,NNW,340,0.0,0.0,98,0.00,,,0.00,,2013-06-08 10:53:00,
2013-06-08 06:02:00,41.0,40.0,-100.00,NNW,340,0.0,0.0,98,0.00,,,0.00,,2013-06-08 11:02:00,
2013-06-08 06:12:00,41.0,40.0,-100.00,NNW,340,0.0,0.0,98,0.00,,,0.00,,2013-06-08 11:12:00,
2013-06-08 06:22:00,41.0,40.0,-100.00,NNW,340,0.0,0.0,98,0.00,,,0.00,,2013-06-08 11:22:00,
2013-06-08 06:32:00,41.0,40.0,-100.00,NNW,340,0.0,0.0,98,0.00,,,0.00,,2013-06-08 11:32:00,
2013-06-08 06:52:00,51.0,45.0,-100.00,ENE,59,0.0,0.0,80,0.00,,,0.00,,2013-06-08 11:52:00,
2013-06-08 07:02:00,51.0,45.0,-100.00,ENE,59,0.0,0.0,80,0.00,,,0.00,,2013-06-08 12:02:00,
2013-06-08 07:12:00,51.0,45.0,-100.00,ENE,59,0.0,0.0,80,0.00,,,0.00,,2013-06-08 12:12:00,
2013-06-08 07:22:00,51.0,45.0,-100.00,ENE,59,0.0,0.0,80,0.00,,,0.00,,2013-06-08 12:22:00,
2013-06-08 07:32:00,51.0,45.0,-100.00,ENE,59,0.0,0.0,80,0.00,,,0.00,,2013-06-08 12:32:00,
2013-06-08 07:52:00,53.0,48.0,-100.00,NE,51,0.0,0.0,82,0.00,,,0.00,,2013-06-08 12:52:00,
2013-06-08 08:02:00,53.0,48.0,-100.00,NE,51,0.0,0.0,82,0.00,,,0.00,,2013-06-08 13:02:00,
2013-06-08 08:12:00,53.0,48.0,-100.00,NE,51,0.0,0.0,82,0.00,,,0.00,,2013-06-08 13:12:00,
2013-06-08 08:22:00,53.0,48.0,-100.00,NE,51,0.0,0.0,82,0.00,,,0.00,,2013-06-08 13:22:00,
2013-06-08 08:32:00,53.0,48.0,-100.00,NE,51,0.0,0.0,82,0.00,,,0.00,,2013-06-08 13:32:00,
2013-06-08 08:52:00,64.0,47.0,-100.00,SE,124,7.0,12.0,54,0.00,,,0.00,,2013-06-08 13:52:00,
2013-06-08 09:02:00,64.0,47.0,-100.00,SE,124,7.0,12.0,54,0.00,,,0.00,,2013-06-08 14:02:00,
2013-06-08 09:12:00,64.0,47.0,-100.00,SE,124,7.0,12.0,54,0.00,,,0.00,,2013-06-08 14:12:00,
2013-06-08 09:22:00,64.0,47.0,-100.00,SE,124,7.0,12.0,54,0.00,,,0.00,,2013-06-08 14:22:00,
2013-06-08 09:32:00,64.0,47.0,-100.00,SE,124,7.0,12.0,54,0.00,,,0.00,,2013-06-08 14:32:00,
2013-06-08 09:52:00,67.0,46.0,-100.00,SE,128,5.0,12.0,47,0.00,,,0.00,,2013-06-08 14:52:00,
2013-06-08 10:02:00,67.0,46.0,-100.00,SE,128,5.0,12.0,47,0.00,,,0.00,,2013-06-08 15:02:00,
2013-06-08 10:12:00,67.0,46.0,-100.00,SE,128,5.0,12.0,47,0.00,,,0.00,,2013-06-08 15:12:00,
2013-06-08 10:22:00,67.0,46.0,-100.00,SE,128,5.0,12.0,47,0.00,,,0.00,,2013-06-08 15:22:00,
2013-06-08 10:32:00,67.0,46.0,-100.00,SE,128,5.0,12.0,47,0.00,,,0.00,,2013-06-08 15:32:00,
2013-06-08 10:53:00,66.0,43.0,-100.00,SSE,153,7.0,15.0,43,0.00,,,0.00,,2013-06-08 15:53:00,
2013-06-08 11:03:00,66.0,43.0,-100.00,SSE,153,7.0,15.0,43,0.00,,,0.00,,2013-06-08 16:03:00,
2013-06-08 11:12:00,66.0,43.0,-100.00,SSE,153,7.0,15.0,43,0.00,,,0.00,,2013-06-08 16:12:00,
2013-06-08 11:23:00,66.0,43.0,-100.00,SSE,153,7.0,15.0,43,0.00,,,0.00,,2013-06-08 16:23:00,
2013-06-08 11:33:00,66.0,43.0,-100.00,SSE,153,7.0,15.0,43,0.00,,,0.00,,2013-06-08 16:33:00,
2013-06-08 11:53:00,69.0,48.0,-100.00,SSE,151,6.0,12.0,48,0.00,,,0.00,,2013-06-08 16:53:00,
2013-06-08 12:02:00,69.0,48.0,-100.00,SSE,151,6.0,12.0,48,0.00,,,0.00,,2013-06-08 17:02:00,
2013-06-08 12:32:00,69.0,48.0,-100.00,SSE,151,6.0,12.0,48,0.00,,,0.00,,2013-06-08 17:32:00,
2013-06-08 12:52:00,71.0,45.0,-100.00,ESE,123,7.0,15.0,40,0.00,,,0.00,,2013-06-08 17:52:00,
2013-06-08 13:02:00,71.0,45.0,-100.00,ESE,123,7.0,15.0,40,0.00,,,0.00,,2013-06-08 18:02:00,
2013-06-08 13:12:00,71.0,45.0,-100.00,ESE,123,7.0,15.0,40,0.00,,,0.00,,2013-06-08 18:12:00,
2013-06-08 13:22:00,71.0,45.0,-100.00,ESE,123,7.0,15.0,40,0.00,,,0.00,,2013-06-08 18:22:00,
2013-06-08 13:32:00,71.0,45.0,-100.00,ESE,123,7.0,15.0,40,0.00,,,0.00,,2013-06-08 18:32:00,
2013-06-08 13:52:00,71.0,44.0,-100.00,SE,127,8.0,15.0,38,0.00,,,0.00,,2013-06-08 18:52:00,
2013-06-08 14:03:00,71.0,44.0,-100.00,SE,127,8.0,15.0,38,0.00,,,0.00,,2013-06-08 19:03:00,
2013-06-08 14:12:00,71.0,44.0,-100.00,SE,127,8.0,15.0,38,0.00,,,0.00,,2013-06-08 19:12:00,
2013-06-08 14:22:00,71.0,44.0,-100.00,SE,127,8.0,15.0,38,0.00,,,0.00,,2013-06-08 19:22:00,
2013-06-08 14:32:00,71.0,44.0,-100.00,SE,127,8.0,15.0,38,0.00,,,0.00,,2013-06-08 19:32:00,
2013-06-08 14:53:00,73.0,45.0,-100.00,SE,132,6.0,14.0,37,0.00,,,0.00,,2013-06-08 19:53:00,
2013-06-08 15:02:00,73.0,45.0,-100.00,SE,132,6.0,14.0,37,0.00,,,0.00,,2013-06-08 20:02:00,
2013-06-08 15:12:00,73.0,45.0,-100.00,SE,132,6.0,14.0,37,0.00,,,0.00,,2013-06-08 20:12:00,
2013-06-08 15:22:00,73.0,45.0,-100.00,SE,132,6.0,14.0,37,0.00,,,0.00,,2013-06-08 20:22:00,
2013-06-08 15:32:00,73.0,45.0,-100.00,SE,132,6.0,14.0,37,0.00,,,0.00,,2013-06-08 20:32:00,
2013-06-08 16:53:00,71.0,42.0,-100.00,ESE,110,8.0,13.0,35,-99.99,,,-99.99,,2013-06-08 21:53:00,
2013-06-08 17:02:00,71.0,42.0,-100.00,ESE,110,8.0,13.0,35,-99.99,,,-99.99,,2013-06-08 22:02:00,
2013-06-08 17:12:00,71.0,42.0,-100.00,ESE,110,8.0,13.0,35,-99.99,,,-99.99,,2013-06-08 22:12:00,
2013-06-08 17:22:00,71.0,42.0,-100.00,ESE,110,8.0,13.0,35,-99.99,,,-99.99,,2013-06-08 22:22:00,
2013-06-08 17:33:00,71.0,42.0,-100.00,ESE,110,8.0,13.0,35,-99.99,,,-99.99,,2013-06-08 22:33:00,
2013-06-08 17:53:00,68.0,43.0,-100.00,SE,127,9.0,15.0,41,0.00,,,-99.99,,2013-06-08 22:53:00,
2013-06-08 18:02:00,68.0,43.0,-100.00,SE,127,9.0,15.0,41,0.00,,,-99.99,,2013-06-08 23:02:00,
2013-06-08 18:12:00,68.0,43.0,-100.00,SE,127,9.0,15.0,41,0.00,,,-99.99,,2013-06-08 23:12:00,
2013-06-08 18:22:00,68.0,43.0,-100.00,SE,127,9.0,15.0,41,0.00,,,-99.99,,2013-06-08 23:22:00,
2013-06-08 18:32:00,68.0,43.0,-100.00,SE,127,9.0,15.0,41,0.00,,,-99.99,,2013-06-08 23:32:00,
2013-06-08 18:52:00,67.0,43.0,-100.00,SE,137,6.0,13.0,42,0.00,,,-99.99,,2013-06-08 23:52:00,
2013-06-08 19:02:00,67.0,43.0,-100.00,SE,137,6.0,13.0,42,0.00,,,-99.99,,2013-06-09 00:02:00,
2013-06-08 19:12:00,67.0,43.0,-100.00,SE,137,6.0,13.0,42,0.00,,,-99.99,,2013-06-09 00:12:00,
2013-06-08 19:22:00,67.0,43.0,-100.00,SE,137,6.0,13.0,42,0.00,,,-99.99,,2013-06-09 00:22:00,
2013-06-08 19:32:00,67.0,43.0,-100.00,SE,137,6.0,13.0,42,0.00,,,-99.99,,2013-06-09 00:32:00,
2013-06-08 19:52:00,64.0,43.0,-100.00,SE,141,7.0,13.0,47,0.00,,,-99.99,,2013-06-09 00:52:00,
2013-06-08 20:02:00,64.0,43.0,-100.00,SE,141,7.0,13.0,47,0.00,,,-99.99,,2013-06-09 01:02:00,
2013-06-08 20:12:00,64.0,43.0,-100.00,SE,141,7.0,13.0,47,0.00,,,-99.99,,2013-06-09 01:12:00,
2013-06-08 20:22:00,64.0,43.0,-100.00,SE,141,7.0,13.0,47,0.00,,,-99.99,,2013-06-09 01:22:00,
2013-06-08 20:32:00,64.0,43.0,-100.00,SE,141,7.0,13.0,47,0.00,,,-99.99,,2013-06-09 01:32:00,
2013-06-08 20:52:00,60.0,44.0,-100.00,ESE,111,3.0,10.0,55,0.00,,,-99.99,,2013-06-09 01:52:00,
2013-06-08 21:02:00,60.0,44.0,-100.00,ESE,111,3.0,10.0,55,0.00,,,-99.99,,2013-06-09 02:02:00,
2013-06-08 21:12:00,60.0,44.0,-100.00,ESE,111,3.0,10.0,55,0.00,,,-99.99,,2013-06-09 02:12:00,
2013-06-08 21:22:00,60.0,44.0,-100.00,ESE,111,3.0,10.0,55,0.00,,,-99.99,,2013-06-09 02:22:00,
2013-06-08 21:32:00,60.0,44.0,-100.00,ESE,111,3.0,10.0,55,0.00,,,-99.99,,2013-06-09 02:32:00,
2013-06-08 22:02:00,55.0,42.0,-100.00,SE,135,3.0,7.0,62,0.00,,,-99.99,,2013-06-09 03:02:00,
2013-06-08 22:12:00,55.0,42.0,-100.00,SE,135,3.0,7.0,62,0.00,,,-99.99,,2013-06-09 03:12:00,
2013-06-08 22:22:00,55.0,42.0,-100.00,SE,135,3.0,7.0,62,0.00,,,-99.99,,2013-06-09 03:22:00,
2013-06-08 22:33:00,55.0,42.0,-100.00,SE,135,3.0,7.0,62,0.00,,,-99.99,,2013-06-09 03:33:00,
2013-06-08 22:53:00,53.0,43.0,-100.00,SE,124,4.0,7.0,68,0.00,,,-99.99,,2013-06-09 03:53:00,
2013-06-08 23:03:00,53.0,43.0,-100.00,SE,124,4.0,7.0,68,0.00,,,-99.99,,2013-06-09 04:03:00,
2013-06-08 23:12:00,53.0,43.0,-100.00,SE,124,4.0,7.0,68,0.00,,,-99.99,,2013-06-09 04:12:00,
2013-06-08 23:23:00,53.0,43.0,-100.00,SE,124,4.0,7.0,68,0.00,,,-99.99,,2013-06-09 04:23:00,
2013-06-08 23:33:00,53.0,43.0,-100.00,SE,124,4.0,7.0,68,0.00,,,-99.99,,2013-06-09 04:33:00,
2013-06-08 23:53:00,50.0,39.0,-100.00,East,93,2.0,5.0,65,0.00,,,-99.99,,2013-06-09 04:53:00,